Regional Weather Roundup
Issued by NWS

Home | Current Version | Previous Version | Text Only | Print | Product List | Glossary Off
Versions: 1 2 3 4 5 6 7 8 9 10 11 12 13 14 15 16 17 18 19 20 21 22 23 24 25 26 27 28 29 30 31 32 33 34 35 36 37 38 39 40 41 42 43 44 45 46 47 48 49 50

000
ASUS43 KBIS 262010
RWRND

NORTH DAKOTA REGIONAL WEATHER ROUNDUP
NATIONAL WEATHER SERVICE BISMARCK ND
300 PM CDT MON JUN 26 2017

NOTE: "FAIR" INDICATES FEW OR NO CLOUDS BELOW 12,000 FEET WITH NO
SIGNIFICANT WEATHER AND/OR OBSTRUCTIONS TO VISIBILITY.


NDZ001>003-009>011-017-262100-
NORTHWEST NORTH DAKOTA

CITY           SKY/WX    TMP DP  RH WIND       PRES   REMARKS
WILLISTON      SUNNY     82  42  24 SE13      30.07F
MINOT          SUNNY     73  39  29 S8        30.13F
MINOT AFB      SUNNY     72  41  32 SW12      30.12F
$$

NDZ018>021-031>035-040>046-262100-
SOUTHWEST NORTH DAKOTA

CITY           SKY/WX    TMP DP  RH WIND       PRES   REMARKS
BISMARCK       SUNNY     74  43  32 S8        30.17F
DICKINSON      SUNNY     76  33  21 S10G20    30.11F
GARRISON         N/A     71  41  33 VRB6      30.14F
HETTINGER ARPT MOSUNNY   77  37  23 S6G16     30.15F
$$

NDZ004>008-012>016-024-026-027-054-262100-
NORTHEAST NORTH DAKOTA

CITY           SKY/WX    TMP DP  RH WIND       PRES   REMARKS
GRAND FORKS    MOSUNNY   74  40  29 VRB7G17   30.14F
GRND FRKS AFB  MOSUNNY   73  42  31 NW10      30.15F
DEVILS LAKE    SUNNY     69  39  33 VRB6G16   30.19F
$$

NDZ022-023-025-028>030-036>039-047>053-262100-
SOUTHEAST NORTH DAKOTA

CITY           SKY/WX    TMP DP  RH WIND       PRES   REMARKS
FARGO          PTSUNNY   74  37  26 W7G16     30.16F
JAMESTOWN      SUNNY     70  39  32 NW8       30.18F
$$





USA.gov is the U.S. government's official web portal to all federal, state and local government web resources and services.